[[{"header":{"parameterUnit":"m.s-1","parameterCategory":1,"la1":30.2991,"la2":30.254,"lo1":-89.0895,"lo2":-89.0444,"dy":0.0017,"dx":0.0017,"nx":28,"ny":28,"refTime":"2024-10-04T03:00:00:Z","depth":0,"parameterNumber":2,"parameterNumberName":"U-component_of_WINDS"},"data":[0,0,0,0,0,0,0,0,0,0,0,0,0,0,0,0,0,0,0,0,0,0,0,0,0,0,0,0,0,0,0,0,0,0,0,0,0,0,0,0,0,0,0,0,0,0,0,0,0,0,0,0,0,0,0,0,0,0,-3.8101,-3.8102,0,-3.8197,-3.8198,-3.8199,-3.8094,-3.809,-3.8086,-3.8083,-3.8183,-3.8189,-3.8195,0,0,0,0,0,0,0,0,0,0,0,0,0,-3.7831,-3.7837,-3.8101,-3.8102,-3.8104,-3.8197,-3.8198,-3.8199,-3.8095,-3.809,-3.8085,-3.8081,-3.8181,-3.8188,-3.8196,0,0,0,0,0,0,0,0,0,0,0,0,0,-3.794,-3.7838,-3.8101,-3.8063,-3.806,-3.8196,-3.8198,-3.8199,-3.8096,-3.809,-3.8084,-3.8079,-3.8178,-3.8188,-3.8197,-3.8376,0,0,-3.8226,-3.823,0,0,0,0,0,0,0,0,-3.7934,-3.795,-3.8067,-3.8066,-3.8063,-3.8127,-3.8139,-3.8259,-3.8098,-3.8083,-3.8083,-3.8076,-3.8169,-3.8179,-3.821,-3.8381,-3.8385,-3.8227,-3.8233,-3.8237,-3.824,0,0,0,0,0,0,0,-3.7926,-3.7945,-3.8139,-3.8069,-3.8067,-3.8042,-3.805,-3.8161,-3.8159,-3.8083,-3.8076,-3.8089,-3.8167,-3.8202,-3.8212,-3.8386,-3.8227,-3.8235,-3.8241,-3.8245,-3.8709,-3.8716,0,0,0,0,0,0,-3.7923,-3.794,-3.8136,-3.8142,-3.7982,-3.8051,-3.8061,-3.8113,-3.8157,-3.8158,-3.8094,-3.8083,-3.8188,-3.8201,-3.8215,-3.8429,-3.8237,-3.8246,-3.8251,-3.8703,-3.8711,-3.8718,0,0,0,0,0,0,-3.7917,-3.7941,-3.8132,-3.8039,-3.8061,-3.8062,-3.8121,-3.8118,-3.8152,-3.8165,-3.8164,-3.8129,-3.8184,-3.8202,-3.8337,-3.8431,-3.825,-3.8259,-3.8695,-3.8705,-3.8714,-3.8857,0,0,0,0,0,0,-3.791,-3.794,-3.8008,-3.8041,-3.8066,-3.8252,-3.8127,-3.8124,-3.8169,-3.8156,-3.8198,-3.8199,-3.8181,-3.8323,-3.8346,-3.8441,-3.8266,-3.8687,-3.87,-3.8711,-3.8844,-3.887,-3.8893,0,0,0,0,0,-3.7901,-3.8044,-3.8011,-3.8036,-3.8151,-3.8258,-3.8272,-3.8247,-3.8177,-3.8245,-3.8253,-3.8198,-3.8416,-3.8338,-3.8363,-3.8462,-3.8681,-3.8696,-3.871,-3.8833,-3.8865,-3.8892,0,0,0,0,0,0,-3.8022,-3.8048,-3.8012,-3.817,-3.8212,-3.824,-3.8325,-3.8282,-3.8346,-3.8332,-3.8299,-3.8309,-3.8453,-3.847,-3.8383,-3.8638,-3.8537,-3.8558,-3.8621,-3.8652,-3.8677,-3.867,-3.8274,0,0,0,0,0,-3.8067,-3.8151,-3.8169,-3.8307,-3.833,-3.8324,-3.837,-3.8347,-3.839,-3.8407,-3.8425,-3.847,-3.8548,-3.8601,-3.8674,-3.8845,-3.8854,-3.8925,-3.895,-3.897,-3.8989,-3.9082,-3.9115,-3.8767,-3.8767,-3.8766,0,0,-3.8161,-3.8186,-3.8241,-3.8332,-3.8362,-3.8451,-3.834,-3.8438,-3.8504,-3.8422,-3.8551,-3.8566,-3.8614,-3.8768,-3.8837,-3.8787,-3.9087,-3.8989,-3.9005,-3.9013,-3.9101,-3.9134,-3.9163,-3.8777,-3.8775,-3.8773,0,0,-3.8379,-3.8405,-3.8523,-3.8556,-3.8602,-3.8598,-3.8626,-3.866,-3.8667,-3.8795,-3.8737,-3.8814,-3.895,-3.8987,-3.9023,-3.9255,-3.9207,-3.928,-3.9409,-3.95,-3.9528,-3.9552,-3.9636,-3.9667,-3.9298,-3.9298,-3.9298,0,-3.849,-3.8621,-3.859,-3.8692,-3.8735,-3.8664,-3.8785,-3.8818,-3.8886,-3.8918,-3.886,-3.903,-3.9057,-3.922,-3.9276,-3.9307,-3.934,-3.9275,-3.9526,-3.955,-3.9572,-3.9652,-3.9684,-3.9307,-3.9306,-3.9305,-3.9304,0,-3.8756,-3.8848,-3.8938,-3.9005,-3.9058,-3.9169,-3.9156,-3.9212,-3.9185,-3.9187,-3.9319,-3.9349,-3.9427,-3.9464,-3.9438,-3.9624,-3.9591,-3.9531,-3.9429,-3.9615,-3.9689,-3.972,-3.9319,-3.9316,-3.9314,-3.9311,0,0,-3.9054,-3.9103,-3.9136,-3.9167,-3.9213,-3.9284,-3.9392,-3.9468,-3.9518,-3.9568,-3.9659,-3.9775,-3.972,-3.9761,-3.9739,-3.9819,-4.0002,-3.9748,-3.9749,-3.9796,-4.021,-4.0257,-4.0293,-3.997,-3.9976,-3.998,-4.0207,0,-3.9273,-3.946,-3.9435,-3.9615,-3.97,-3.9634,-3.9729,-3.9768,-3.9773,-3.9846,-3.9851,-3.9935,-3.9854,-3.9879,-3.9955,-3.9964,-4.0085,-3.9947,-4.0056,-4.006,-4.0048,-4.0331,-4.0381,-4.0593,-4.0236,-4.0241,-4.0244,0,-3.9554,-3.9614,-3.9802,-3.9836,-3.9871,-3.9956,-4.0024,-4.0095,-4.0138,-4.0136,-4.0183,-4.0146,-4.0256,-4.0151,-4.0302,-4.0209,-4.0252,-4.0263,-4.0271,-4.0281,-4.0165,-4.0351,-4.066,-4.0693,-4.0289,-4.0286,-4.0283,0,-3.9754,-3.9882,-4.0011,-4.0039,-4.0081,-4.0143,-4.0164,-4.0201,-4.0249,-4.0308,-4.0339,-4.0411,-4.0451,-4.0508,-4.0492,-4.0417,-4.0648,-4.0542,-4.0651,-4.0651,-4.0704,-4.0701,-4.1026,-4.0729,-4.0728,-4.0728,-4.0727,0,-4.0003,-4.0121,-4.0102,-4.0182,-4.0312,-4.0283,-4.0414,-4.0426,-4.046,-4.0542,-4.0489,-4.0568,-4.0541,-4.0619,-4.0607,-4.0735,-4.0753,-4.0755,-4.0751,-4.0761,-4.0761,-4.079,-4.0776,-4.0736,-4.0734,-4.0733,-4.0731,0,-4.0249,-4.0241,-4.0378,-4.0407,-4.0417,-4.0512,-4.0537,-4.0613,-4.0613,-4.0717,-4.074,-4.0741,-4.0829,-4.0818,-4.0917,-4.0909,-4.1069,-4.1046,-4.1054,-4.105,-4.116,-4.1151,-4.1516,-4.1563,-4.1234,-4.1238,-4.124,0,-4.0409,-4.0499,-4.0537,-4.0588,-4.0613,-4.0696,-4.0744,-4.0718,-4.0771,-4.0827,-4.0897,-4.098,-4.1045,-4.1189,-4.1199,-4.1275,-4.1254,-4.1377,-4.1265,-4.1273,-4.1258,-4.1254,-4.1263,-4.14,-4.1404,-4.1407,-4.1409,0,-4.0695,-4.0686,-4.0757,-4.0828,-4.0887,-4.0941,-4.099,-4.1034,-4.1014,-4.1076,-4.1165,-4.1216,-4.1316,-4.14,-4.1471,-4.1493,-4.1449,-4.1444,-4.1473,-4.1485,-4.1487,-4.1489,-4.1116,-4.1436,-4.1433,-4.1431,-4.143,-4.1429,-4.0904,-4.0981,-4.102,-4.1102,-4.1136,-4.1183,-4.1255,-4.1264,-4.1338,-4.1418,-4.1398,-4.1499,-4.1541,-4.1632,-4.1662,-4.1741,-4.1696,-4.1739,-4.175,-4.1761,-4.1775,-4.1473,-4.1754,-4.1753,-4.1752,-4.1752,-4.1751,0,-4.1188,-4.121,-4.1285,-4.1355,-4.142,-4.1371,-4.1422,-4.148,-4.1569,-4.1612,-4.1677,-4.178,-4.1861,-4.1877,-4.1955,-4.2016,-4.1998,-4.2037,-4.2033,-4.204,-4.181,-4.1777,-4.2051,-4.2051,-4.2051,-4.2051,-4.205,-4.205,-4.1344,-4.1472,-4.1468,-4.1613,-4.1634,-4.1732,-4.1766,-4.181,-4.1843,-4.1961,-4.2028,-4.2037,-4.207,-4.2149,-4.2222,-4.2224,-4.2256,-4.2305,-4.23,-4.2085,-4.2055,-4.2027,-4.1996,-4.2311,-4.2312,-4.2523,-4.2525,-4.2526]},{"header":{"parameterUnit":"m.s-1","parameterCategory":1,"la1":30.2991,"la2":30.254,"lo1":-89.0895,"lo2":-89.0444,"dy":0.0017,"dx":0.0017,"nx":28,"ny":28,"refTime":"2024-10-04T03:00:00:Z","depth":0,"parameterNumber":3,"parameterNumberName":"V-component_of_WINDS"},"data":[0,0,0,0,0,0,0,0,0,0,0,0,0,0,0,0,0,0,0,0,0,0,0,0,0,0,0,0,0,0,0,0,0,0,0,0,0,0,0,0,0,0,0,0,0,0,0,0,0,0,0,0,0,0,0,0,0,0,-0.0573,-0.0575,0,-0.071,-0.0712,-0.0713,-0.0741,-0.074,-0.0739,-0.0738,-0.0884,-0.0889,-0.0894,0,0,0,0,0,0,0,0,0,0,0,0,0,-0.0341,-0.0345,-0.0573,-0.0575,-0.0577,-0.071,-0.0712,-0.0714,-0.0742,-0.074,-0.0739,-0.0738,-0.0883,-0.0888,-0.0894,0,0,0,0,0,0,0,0,0,0,0,0,0,-0.0456,-0.0346,-0.0573,-0.0606,-0.0611,-0.071,-0.0712,-0.0714,-0.0742,-0.074,-0.0739,-0.0737,-0.0881,-0.0888,-0.0895,-0.0972,0,0,-0.0917,-0.0921,0,0,0,0,0,0,0,0,-0.045,-0.0465,-0.06,-0.0604,-0.0609,-0.0707,-0.0683,-0.0801,-0.0742,-0.0692,-0.0738,-0.0737,-0.0827,-0.0839,-0.0868,-0.0979,-0.0985,-0.0918,-0.0922,-0.0926,-0.0928,0,0,0,0,0,0,0,-0.0442,-0.0459,-0.0628,-0.0602,-0.0608,-0.0616,-0.0631,-0.0706,-0.0767,-0.0697,-0.0699,-0.0714,-0.0829,-0.0861,-0.0872,-0.0987,-0.0918,-0.0924,-0.0929,-0.0932,-0.1168,-0.117,0,0,0,0,0,0,-0.0427,-0.0452,-0.0623,-0.0632,-0.0524,-0.0622,-0.0638,-0.0677,-0.0766,-0.0778,-0.0716,-0.0715,-0.0849,-0.0863,-0.0877,-0.0974,-0.0925,-0.0932,-0.0937,-0.1166,-0.1169,-0.1171,0,0,0,0,0,0,-0.0422,-0.0442,-0.0618,-0.0543,-0.0566,-0.0627,-0.0671,-0.0681,-0.0712,-0.0781,-0.0792,-0.0736,-0.0848,-0.0867,-0.0948,-0.0979,-0.0936,-0.0942,-0.1164,-0.1167,-0.117,-0.1167,0,0,0,0,0,0,-0.0415,-0.044,-0.0469,-0.0543,-0.0569,-0.0685,-0.0673,-0.0685,-0.0724,-0.0725,-0.0803,-0.0815,-0.0849,-0.0937,-0.0955,-0.0988,-0.0948,-0.1162,-0.1165,-0.1169,-0.1165,-0.1169,-0.1174,0,0,0,0,0,-0.0407,-0.0464,-0.047,-0.0491,-0.0606,-0.0687,-0.0702,-0.0739,-0.0727,-0.0757,-0.0801,-0.0812,-0.0972,-0.0945,-0.0966,-0.1002,-0.116,-0.1164,-0.1169,-0.1163,-0.1169,-0.1173,0,0,0,0,0,0,-0.0394,-0.0474,-0.0482,-0.0564,-0.0618,-0.0691,-0.0731,-0.0743,-0.0803,-0.0802,-0.0846,-0.0863,-0.0942,-0.098,-0.0948,-0.1081,-0.1065,-0.1074,-0.1054,-0.106,-0.1064,-0.1055,-0.0954,0,0,0,0,0,-0.04,-0.0457,-0.0524,-0.0591,-0.0617,-0.0669,-0.0705,-0.0728,-0.0787,-0.081,-0.086,-0.0918,-0.0981,-0.1022,-0.1084,-0.1169,-0.1188,-0.1204,-0.1208,-0.1212,-0.122,-0.1269,-0.1278,-0.1185,-0.1185,-0.1185,0,0,-0.0415,-0.0466,-0.0499,-0.0589,-0.0634,-0.0693,-0.0688,-0.0751,-0.0797,-0.0821,-0.09,-0.0938,-0.1006,-0.1089,-0.1129,-0.1123,-0.1249,-0.1217,-0.1219,-0.1226,-0.1274,-0.1283,-0.1291,-0.1188,-0.1187,-0.1187,0,0,-0.0473,-0.0515,-0.0576,-0.062,-0.0686,-0.072,-0.0734,-0.0805,-0.0831,-0.0911,-0.093,-0.0985,-0.1093,-0.114,-0.1179,-0.1252,-0.1266,-0.1271,-0.1295,-0.1343,-0.135,-0.1357,-0.1385,-0.1394,-0.1278,-0.1278,-0.1278,0,-0.0483,-0.0572,-0.0606,-0.0668,-0.0708,-0.0729,-0.0792,-0.0833,-0.0917,-0.0945,-0.0936,-0.1072,-0.1119,-0.1214,-0.1232,-0.1261,-0.1281,-0.1264,-0.1346,-0.1353,-0.136,-0.1387,-0.1397,-0.1278,-0.1278,-0.1278,-0.1278,0,-0.0583,-0.0644,-0.0685,-0.0763,-0.0807,-0.0869,-0.0914,-0.0955,-0.0973,-0.1008,-0.109,-0.1146,-0.122,-0.1244,-0.1263,-0.1343,-0.1337,-0.1336,-0.1323,-0.1368,-0.1395,-0.1406,-0.1279,-0.1279,-0.1278,-0.1278,0,0,-0.064,-0.0734,-0.0749,-0.0785,-0.0858,-0.0907,-0.097,-0.1041,-0.1076,-0.1132,-0.1188,-0.1277,-0.1277,-0.132,-0.1345,-0.1386,-0.1443,-0.1381,-0.1383,-0.1392,-0.1536,-0.1538,-0.1549,-0.145,-0.1452,-0.1454,-0.1531,0,-0.0708,-0.082,-0.0851,-0.0946,-0.1004,-0.1024,-0.1079,-0.1132,-0.1165,-0.1221,-0.1259,-0.1323,-0.1316,-0.1342,-0.1383,-0.1427,-0.1473,-0.1421,-0.1505,-0.1508,-0.1491,-0.1563,-0.1565,-0.1635,-0.1541,-0.1543,-0.1544,0,-0.0804,-0.086,-0.096,-0.1026,-0.1052,-0.1101,-0.1168,-0.1219,-0.1279,-0.1301,-0.1348,-0.1369,-0.1437,-0.1416,-0.1512,-0.1477,-0.1512,-0.1539,-0.1542,-0.1554,-0.1531,-0.1579,-0.1658,-0.1669,-0.1561,-0.1559,-0.1558,0,-0.0838,-0.0938,-0.1012,-0.1042,-0.112,-0.1154,-0.1189,-0.1246,-0.1287,-0.1345,-0.1372,-0.1438,-0.1476,-0.1527,-0.1566,-0.1547,-0.1659,-0.1641,-0.1681,-0.1681,-0.1707,-0.1705,-0.1795,-0.1725,-0.1725,-0.1724,-0.1724,0,-0.0913,-0.0974,-0.1028,-0.1074,-0.1143,-0.1178,-0.1247,-0.1282,-0.1333,-0.1387,-0.1408,-0.1459,-0.1505,-0.1563,-0.1593,-0.1669,-0.1685,-0.1706,-0.1714,-0.1706,-0.1704,-0.1733,-0.173,-0.1727,-0.1727,-0.1726,-0.1726,0,-0.0964,-0.1002,-0.1084,-0.115,-0.1168,-0.1217,-0.1275,-0.132,-0.1353,-0.1422,-0.144,-0.1493,-0.1562,-0.1604,-0.1691,-0.1712,-0.1796,-0.1801,-0.1775,-0.178,-0.1818,-0.1815,-0.1932,-0.195,-0.1865,-0.1866,-0.1866,0,-0.1011,-0.1058,-0.1129,-0.1165,-0.12,-0.1258,-0.1299,-0.1335,-0.1377,-0.1447,-0.1485,-0.1554,-0.1612,-0.172,-0.1768,-0.1835,-0.1843,-0.188,-0.1854,-0.1844,-0.1847,-0.1845,-0.1851,-0.1885,-0.1886,-0.1886,-0.1887,0,-0.1091,-0.1107,-0.1163,-0.1226,-0.1273,-0.1325,-0.1377,-0.1406,-0.1452,-0.1497,-0.1566,-0.161,-0.1698,-0.1768,-0.1838,-0.1876,-0.189,-0.1894,-0.1907,-0.1901,-0.1885,-0.1897,-0.179,-0.1892,-0.1892,-0.1891,-0.1891,-0.1891,-0.1143,-0.1186,-0.1242,-0.1305,-0.1347,-0.1394,-0.1441,-0.1479,-0.1536,-0.1609,-0.1627,-0.17,-0.1759,-0.1855,-0.1893,-0.1952,-0.1947,-0.1966,-0.1971,-0.1976,-0.1978,-0.1873,-0.1965,-0.1965,-0.1965,-0.1965,-0.1965,0,-0.1226,-0.1263,-0.1319,-0.139,-0.1439,-0.1444,-0.1502,-0.1543,-0.1606,-0.1658,-0.1714,-0.1793,-0.186,-0.1912,-0.1981,-0.2018,-0.2026,-0.2035,-0.2035,-0.2043,-0.1977,-0.196,-0.2027,-0.2027,-0.2027,-0.2027,-0.2027,-0.2027,-0.1275,-0.1349,-0.1371,-0.1466,-0.1503,-0.1573,-0.1605,-0.165,-0.1692,-0.1779,-0.1834,-0.1866,-0.1919,-0.1992,-0.2054,-0.2067,-0.2093,-0.2101,-0.2116,-0.2055,-0.2048,-0.2042,-0.2026,-0.2106,-0.2106,-0.2178,-0.2179,-0.2179]}]]